GFSGL_sfc_dewp_231.txt.gz
Dewpoint
68 69 67 71 73 71 71 70 70 70 71 72 72 73 73 74 73 73 72 72 72 70 69 69 68 67 67 67 66 63 59 54 52 54 54 56 56 56 54 58 55 55 56
68 68 68 69 72 72 71 73 72 70 70 73 72 73 73 73 74 73 72 73 72 71 71 70 70 71 69 68 68 67 66 63 58 59 60 59 58 56 55 53 53 53 54
69 68 68 69 70 71 71 71 72 73 71 73 73 73 73 73 73 73 73 73 72 72 72 71 71 71 70 70 70 69 69 68 65 62 65 62 61 58 56 55 56 57 56
69 68 68 68 68 69 70 71 70 72 73 72 73 72 72 73 73 73 73 73 73 73 73 72 72 72 71 71 70 70 70 69 67 66 67 65 64 62 57 56 59 57 58
68 68 68 69 68 68 68 69 70 70 71 72 72 73 72 72 72 73 73 73 73 73 73 73 73 73 71 71 72 71 70 70 69 69 68 68 66 63 59 58 57 55 57
69 69 68 69 69 69 69 68 69 68 68 70 72 72 73 72 67 66 70 72 73 73 73 73 72 71 71 68 68 68 70 71 70 70 70 69 69 67 63 58 57 55 55
69 69 69 69 70 70 70 70 70 69 68 68 69 71 71 72 66 65 66 71 72 72 72 72 72 72 70 72 69 66 66 66 67 71 70 69 69 69 63 59 54 56 57
68 68 69 70 70 70 71 71 71 70 70 69 69 69 70 70 65 64 65 70 71 71 71 71 71 71 70 70 70 70 69 68 67 67 68 68 68 69 65 62 59 57 58
64 65 68 70 70 70 71 71 71 71 70 70 70 69 70 69 63 62 63 69 70 70 71 70 70 70 67 63 68 68 68 68 66 63 64 64 63 62 62 58 57 56 55
61 62 65 66 69 70 70 70 71 71 70 70 70 70 68 70 63 61 62 70 70 70 70 70 65 67 63 60 66 67 67 68 68 66 65 63 62 61 59 62 57 56 55
60 61 63 65 66 70 71 71 70 70 70 70 70 70 71 69 69 59 59 69 69 69 69 69 70 62 59 57 58 67 67 67 66 66 66 63 59 59 59 60 58 58 55
61 61 63 65 67 71 72 71 71 71 70 70 70 69 70 70 64 62 59 59 66 69 69 70 70 61 58 57 56 58 57 59 63 63 64 62 59 58 58 58 59 56 55
61 62 63 66 67 69 71 71 71 71 71 71 71 70 70 71 71 61 60 59 59 66 71 69 64 59 55 57 56 57 56 61 64 65 66 64 58 59 58 57 57 53 52
60 60 62 62 64 69 71 71 71 71 71 70 70 70 70 70 71 71 68 66 61 63 65 68 66 63 61 64 63 60 62 65 66 66 64 62 58 56 56 57 55 53 52
59 60 61 62 64 66 67 68 71 73 71 72 72 72 72 72 71 67 68 73 71 67 65 69 70 67 68 68 67 66 64 64 64 64 61 59 56 56 56 55 54 53 51
57 59 60 62 63 64 64 65 62 60 57 51 52 62 73 60 53 54 51 52 52 54 65 68 68 69 69 69 69 69 67 65 65 63 61 60 58 56 55 53 52 51 51
59 58 60 59 61 60 61 62 62 62 50 49 48 47 47 49 51 51 50 50 49 52 66 68 68 69 68 66 66 68 69 65 64 62 61 59 58 56 55 53 51 50 49
54 53 57 58 59 59 60 60 61 62 64 64 55 52 46 45 44 44 45 50 60 57 65 66 67 68 67 68 69 69 68 64 63 61 60 59 58 56 54 53 52 52 50
50 52 53 58 57 57 59 59 59 59 60 61 60 55 54 50 47 46 45 61 67 66 66 67 67 68 68 69 69 68 66 64 62 60 60 58 58 57 54 54 53 49 49
48 50 52 52 55 54 56 57 56 56 57 57 56 54 55 58 63 63 62 62 64 65 66 67 67 67 68 68 68 66 63 62 62 61 59 59 59 57 54 53 52 51 50
45 46 51 50 50 53 52 53 54 55 54 54 55 54 45 56 57 57 57 59 59 59 60 62 62 63 65 64 64 63 62 61 59 60 58 58 58 55 55 53 53 51 50
41 45 45 46 49 49 50 50 52 53 53 52 52 53 46 53 53 54 54 54 55 55 55 56 56 56 55 59 62 62 60 59 59 59 59 59 57 56 54 52 52 51 50
37 46 44 43 45 47 47 48 48 51 51 51 50 50 50 50 51 52 52 53 53 52 52 52 50 50 50 50 51 52 57 60 60 59 58 58 57 56 54 53 51 50 50
37 44 46 44 44 43 44 45 45 45 48 47 49 48 47 47 46 46 48 50 50 49 49 46 45 46 47 46 46 45 43 40 48 58 57 57 56 54 55 54 52 51 50
37 35 35 41 42 43 43 41 41 46 47 47 46 45 43 45 45 45 46 46 45 45 45 44 40 40 42 42 42 41 36 33 40 41 58 57 57 57 55 55 55 51 47
34 34 32 34 33 37 44 43 42 41 44 46 45 45 44 41 41 41 41 41 41 39 39 43 39 37 36 37 37 35 33 33 37 34 44 57 57 55 54 55 55 49 45

GFSGL_sfc_dewp_234.txt.gz
Dewpoint
68 68 69 70 72 73 72 71 71 71 72 72 72 74 74 75 75 74 74 73 72 73 72 71 71 71 70 69 69 65 61 58 57 62 58 61 63 64 63 62 62 62 60
69 69 68 70 72 72 72 72 72 71 72 72 73 73 74 74 75 74 74 74 74 73 73 72 72 72 72 72 71 70 69 67 62 65 68 66 66 66 65 63 59 55 55
69 69 69 69 70 71 72 72 73 72 72 72 73 73 74 74 74 75 75 74 74 74 74 74 73 73 73 73 73 72 72 71 68 65 68 67 67 66 66 63 61 61 57
68 68 69 69 69 70 72 72 72 74 74 72 73 74 74 74 74 74 74 74 74 74 74 74 74 74 74 74 73 73 73 72 71 69 69 70 69 69 64 63 65 61 61
69 69 69 69 69 70 70 72 72 72 72 74 73 73 74 73 72 74 74 74 74 74 74 74 74 74 71 72 73 74 73 72 72 70 70 70 69 69 68 67 62 62 63
70 69 70 70 70 69 70 70 71 71 71 72 72 72 73 72 68 66 71 73 74 74 73 74 74 72 71 68 68 68 71 73 72 71 71 70 71 72 71 68 65 61 62
69 69 70 70 70 70 70 70 69 69 70 70 70 72 72 72 66 65 66 72 72 72 73 73 72 72 71 73 69 66 67 66 68 72 71 71 71 71 71 69 64 62 61
69 69 70 70 70 70 71 71 70 70 70 69 69 69 70 70 64 64 65 71 72 73 73 73 73 73 73 72 72 72 72 72 71 69 70 71 71 72 71 70 67 62 59
64 66 67 69 70 71 70 71 71 70 71 70 70 70 70 69 62 61 64 71 71 72 72 73 73 73 68 64 71 71 71 71 67 63 64 64 63 62 66 63 61 59 58
61 62 64 65 67 69 72 72 72 71 71 71 71 72 68 71 63 59 62 69 70 70 71 72 66 69 64 61 69 70 69 70 71 71 70 66 64 66 61 66 64 60 59
62 63 63 65 66 67 69 71 72 72 72 72 72 72 72 71 71 60 58 69 70 70 70 70 71 62 59 58 58 70 69 70 69 70 69 68 67 66 64 63 64 62 59
62 63 63 65 67 69 70 71 72 72 72 71 72 72 72 72 64 63 58 59 66 70 70 71 71 61 57 56 56 58 58 60 67 67 67 68 67 67 64 62 62 60 60
62 62 62 63 64 66 68 70 72 72 71 71 71 70 71 73 72 60 59 58 58 66 71 68 63 58 56 58 56 56 56 64 66 67 67 68 66 66 62 61 59 58 55
60 61 62 63 63 66 66 67 69 71 71 71 71 71 71 72 71 72 72 68 60 62 64 68 67 64 62 65 65 65 66 68 68 69 69 69 64 60 60 59 56 55 54
58 60 60 62 63 64 65 65 65 68 65 68 72 73 72 72 72 66 68 73 72 69 68 70 70 70 70 70 70 70 68 67 66 67 66 64 62 60 60 58 57 54 54
58 58 59 60 61 61 62 62 58 56 51 47 47 52 67 60 49 50 49 51 53 54 66 71 71 71 70 70 70 69 69 66 66 67 67 65 63 61 60 57 55 54 54
55 56 58 58 58 58 59 60 60 60 56 49 48 47 45 45 45 45 45 46 48 53 69 72 72 72 72 72 71 69 67 69 70 67 65 65 63 63 59 57 56 54 53
50 51 54 58 58 57 58 58 59 59 59 60 55 51 48 46 45 44 44 47 62 56 66 70 72 72 71 71 69 69 70 71 68 65 63 63 63 61 59 58 57 55 53
47 48 52 54 57 55 57 57 58 58 58 58 58 53 51 48 46 46 44 61 64 66 66 67 68 68 70 70 70 70 71 70 67 65 63 62 61 60 59 60 58 53 51
46 49 51 53 54 55 55 55 54 55 56 56 55 54 53 55 57 57 59 60 60 60 61 63 64 65 66 67 68 70 69 67 66 65 64 63 61 61 60 58 58 54 52
41 46 48 51 52 52 53 54 54 53 53 54 54 52 45 54 54 54 54 55 55 56 55 56 56 56 56 58 62 63 63 62 62 62 62 61 60 59 58 58 57 54 53
39 46 45 44 49 51 51 51 52 52 52 51 52 51 45 52 52 52 52 53 53 53 53 52 52 51 51 51 51 54 60 60 60 60 60 60 59 58 58 58 57 55 52
38 43 46 44 44 45 46 49 50 51 50 49 49 49 49 49 49 49 50 51 50 50 48 49 49 49 49 48 48 47 48 49 51 60 59 58 58 58 57 56 54 53 52
37 41 45 45 44 43 42 42 43 45 47 47 46 47 47 47 46 46 47 47 48 47 46 45 45 46 46 46 45 45 42 40 48 59 59 58 58 54 56 55 54 53 52
37 38 36 41 42 40 42 42 41 41 46 47 46 45 42 44 43 43 45 46 46 45 44 43 40 37 37 37 38 40 36 33 39 38 58 58 57 56 56 56 55 53 52
33 37 36 35 35 39 42 46 44 44 42 43 45 46 45 41 40 38 38 37 38 38 41 42 38 37 37 37 36 35 33 33 37 34 45 56 57 56 56 56 55 54 53

GFSGL_sfc_dewp_240.txt.gz
Dewpoint
70 71 72 71 73 74 73 74 75 75 76 74 75 75 74 74 76 77 77 74 75 75 73 74 75 76 72 70 70 70 69 68 67 66 66 69 74 74 74 75 74 73 71
72 74 71 70 71 71 73 72 74 75 75 75 75 75 75 75 76 76 76 74 75 74 74 74 74 71 75 76 72 74 72 73 70 74 73 70 74 75 75 75 73 71 71
72 70 70 70 69 70 70 72 74 75 75 74 75 75 74 74 74 75 76 75 75 75 75 74 74 74 75 73 73 72 70 69 70 67 68 68 69 70 72 74 74 74 71
68 69 70 69 69 69 71 73 75 75 74 74 74 75 75 75 74 74 74 75 75 75 75 75 75 75 75 76 75 75 74 73 72 69 66 65 67 71 70 70 68 67 67
69 69 71 72 72 71 72 72 73 75 75 74 74 74 74 73 71 73 74 74 75 75 75 75 75 74 71 72 71 75 78 72 66 63 62 63 62 62 66 66 66 66 70
71 69 72 74 74 74 74 74 75 75 76 75 74 72 72 70 65 65 70 70 71 72 73 74 74 72 72 69 69 69 72 75 76 69 65 64 73 71 66 67 68 68 68
71 71 71 73 72 73 73 74 74 75 76 76 75 73 74 74 65 64 66 73 71 70 73 72 70 67 69 70 68 68 68 67 68 74 74 74 74 75 76 75 75 73 72
71 71 72 72 72 73 74 74 75 73 74 75 74 75 75 73 65 63 64 73 73 74 73 72 74 74 74 72 72 69 70 70 71 71 74 74 75 75 77 76 75 73 73
70 72 71 72 72 72 72 73 73 73 73 73 73 74 75 75 63 62 66 71 70 71 71 74 73 74 69 64 73 73 73 71 67 63 64 65 64 64 66 71 70 70 70
69 70 70 71 71 72 72 73 74 74 73 72 73 74 70 74 66 61 64 69 69 68 72 74 66 71 65 62 73 73 73 72 73 73 74 71 67 71 64 71 72 72 70
66 67 70 70 70 71 72 73 74 74 74 74 75 75 76 74 75 61 59 71 70 69 68 68 68 62 61 60 60 73 72 72 72 73 73 74 75 74 75 72 74 72 71
66 65 66 68 69 71 71 71 73 73 73 74 74 74 73 77 68 65 59 59 68 71 71 69 70 60 56 57 60 62 60 62 70 70 71 71 72 73 76 76 74 73 71
66 66 66 67 67 69 69 70 71 72 71 73 72 73 73 73 75 61 58 58 59 69 72 68 61 59 57 60 56 58 57 70 71 70 72 72 74 73 75 71 70 68 64
64 65 65 65 66 66 66 66 68 68 67 68 69 70 72 74 74 65 66 71 62 65 65 68 67 65 62 64 66 68 72 73 72 74 73 73 73 72 71 70 66 63 62
61 61 61 59 62 62 63 63 64 64 62 64 64 65 65 67 66 52 52 64 67 65 62 74 73 72 72 73 74 75 75 74 74 73 73 72 71 70 70 67 65 62 61
58 57 56 57 57 58 59 61 59 57 51 49 48 53 58 55 48 45 44 44 46 48 66 71 72 72 70 72 75 76 77 73 73 73 74 71 68 67 68 66 64 62 60
55 54 54 54 56 56 57 58 58 58 52 49 48 48 47 45 44 43 44 45 46 50 66 70 71 71 73 75 76 76 76 77 78 76 72 71 67 69 67 65 63 62 62
55 52 53 53 53 54 54 55 55 56 57 58 52 52 48 47 45 46 47 53 65 61 67 68 69 69 70 70 70 72 74 76 77 75 72 70 70 69 67 65 63 62 62
48 50 53 56 55 54 54 54 53 55 55 56 57 54 52 48 47 48 51 59 59 59 59 61 61 61 61 62 64 68 70 71 73 73 72 71 70 69 67 66 64 57 59
48 50 48 50 50 51 51 52 53 53 53 53 53 54 53 54 57 57 58 58 57 56 56 57 56 56 56 56 57 59 64 66 69 71 71 69 68 68 67 66 64 62 61
41 45 50 44 46 46 47 48 49 51 51 51 51 51 45 54 55 56 55 54 53 53 53 53 54 52 52 53 52 54 57 63 65 66 67 67 68 67 67 66 65 63 60
42 41 43 43 44 43 44 43 46 46 48 48 49 50 45 51 52 54 55 55 54 52 51 51 51 51 50 50 50 50 51 54 57 58 64 65 65 65 65 64 62 61 60
40 40 39 42 43 43 41 41 40 42 43 44 45 45 45 46 47 48 50 53 53 50 49 49 48 47 47 48 49 50 48 48 49 53 58 63 64 63 62 62 60 59 58
36 39 39 39 39 37 36 37 37 39 39 39 40 42 42 43 41 42 43 45 47 48 47 46 46 44 44 44 46 45 47 43 44 50 54 62 62 59 61 60 60 59 58
35 36 38 39 38 36 36 36 36 37 38 37 37 38 40 41 40 38 39 39 40 41 41 39 38 37 36 37 36 36 34 31 37 38 49 56 61 63 62 61 60 58 57
34 34 34 35 36 37 36 36 35 36 35 35 35 36 38 39 40 38 37 37 36 35 37 36 36 36 35 31 32 33 31 30 34 32 43 55 56 59 60 59 59 59 57

GFSGL_sfc_dewp_246.txt.gz
Dewpoint
73 74 74 74 75 76 76 77 77 78 80 78 78 77 77 77 78 78 78 78 77 77 77 77 77 76 75 75 76 76 74 73 70 72 73 72 75 75 75 76 77 76 75
73 74 74 74 74 74 75 76 78 78 79 78 78 78 78 77 77 77 76 72 76 76 76 76 76 73 77 77 76 76 74 74 73 71 72 74 73 72 73 76 75 71 73
73 72 72 73 72 73 73 74 77 77 76 77 77 77 77 77 77 77 77 76 77 76 76 76 76 76 76 76 76 76 75 74 75 73 70 72 72 73 72 72 75 75 75
71 71 72 71 71 71 73 74 74 77 76 76 77 77 77 77 77 76 76 76 77 76 77 78 77 77 76 77 77 76 76 76 75 74 72 72 71 69 70 70 67 67 70
71 71 71 72 72 72 72 73 75 75 76 76 76 77 77 76 74 76 76 76 76 76 76 77 77 76 73 74 75 76 77 76 73 70 69 69 69 69 69 69 69 69 71
72 71 73 74 74 73 74 72 74 76 75 77 76 76 76 73 68 67 72 75 75 75 75 76 76 73 72 68 68 69 72 73 73 72 72 71 72 72 72 72 72 72 70
74 73 74 74 73 74 74 75 75 75 76 76 76 76 75 76 68 64 65 73 74 74 76 75 74 72 71 74 70 66 67 66 67 72 72 72 72 73 74 74 74 73 72
74 74 74 74 74 75 75 75 77 78 76 76 74 75 76 76 66 65 63 71 73 75 74 74 74 74 74 72 73 72 72 73 73 71 71 72 73 74 75 74 74 73 73
72 74 74 74 74 75 75 76 77 76 76 76 75 74 74 74 67 63 65 72 71 72 73 74 74 74 69 65 71 72 73 72 69 65 64 64 65 64 66 69 70 70 69
70 73 74 75 74 74 74 75 74 73 73 74 75 74 70 73 67 63 64 72 72 71 72 72 67 70 66 64 70 72 72 72 74 75 75 73 70 73 66 70 71 69 69
71 70 72 72 72 73 74 72 72 71 72 73 72 72 71 71 72 64 61 73 74 74 74 70 70 60 57 56 56 68 71 72 73 75 75 74 73 75 76 75 75 74 72
70 70 70 71 71 71 69 71 69 69 68 68 68 69 70 71 67 61 61 60 65 71 73 75 75 58 59 60 61 61 59 62 70 71 71 71 72 75 75 75 73 70 69
69 69 69 69 69 70 71 71 70 69 69 70 70 69 69 70 68 61 60 59 62 67 72 68 60 58 59 60 57 58 58 69 72 71 71 72 74 74 74 70 67 65 65
67 68 69 70 69 70 71 70 69 69 69 69 69 68 69 70 63 62 63 64 63 67 62 65 64 61 61 66 65 68 70 73 72 72 73 76 74 74 74 71 68 67 65
63 65 67 66 67 67 69 66 65 66 65 67 66 66 65 66 58 51 51 58 60 58 53 65 69 71 73 74 74 75 73 75 74 74 74 73 74 73 72 70 69 66 65
59 58 58 60 64 63 64 62 57 55 50 50 50 57 59 52 48 46 45 45 45 46 61 67 69 68 68 68 69 69 72 72 73 73 73 73 73 74 72 71 68 65 64
60 59 56 55 57 58 60 64 61 58 51 48 47 48 50 49 49 47 45 45 48 51 63 62 63 62 62 62 62 63 64 66 68 69 72 73 74 73 70 70 67 65 63
56 52 54 54 53 55 56 55 54 58 60 60 52 50 46 46 47 46 46 49 60 59 61 60 60 59 58 58 58 58 58 59 61 63 65 67 70 72 72 69 67 65 64
51 49 51 51 52 54 54 54 53 55 57 58 61 51 52 46 48 48 47 61 60 60 60 59 58 57 56 56 55 55 56 57 57 59 61 63 66 69 70 70 68 60 61
52 52 51 51 48 51 51 51 51 56 57 56 55 57 57 53 55 59 62 61 58 57 57 58 57 56 55 54 54 53 53 54 54 54 55 56 60 65 67 67 67 65 64
49 48 52 48 47 47 48 50 51 52 52 52 56 56 46 52 52 55 58 59 57 56 56 56 55 54 53 53 52 52 52 52 51 51 51 53 55 60 64 65 66 66 64
46 46 45 43 45 49 49 49 49 47 47 49 52 52 44 51 52 54 57 58 58 59 55 56 54 54 52 51 52 50 51 50 49 49 49 51 53 56 61 63 64 64 64
43 43 41 42 43 46 45 44 45 46 46 46 46 46 48 51 50 51 53 52 54 56 56 54 51 50 50 51 48 44 41 39 43 46 48 50 51 55 57 61 62 62 62
40 40 40 41 40 41 42 42 44 40 40 40 40 42 43 46 44 47 50 50 50 50 52 54 51 47 48 47 47 42 34 32 35 40 43 49 51 53 56 58 61 62 62
38 39 41 41 41 42 42 42 42 40 39 40 40 42 42 43 43 41 45 49 50 49 48 48 47 47 44 48 44 37 33 30 33 32 34 43 53 54 54 55 57 58 60
39 40 42 43 44 43 43 43 43 42 41 41 41 42 42 41 40 40 42 45 45 45 45 46 46 46 45 41 38 33 31 30 32 31 31 37 46 53 54 53 54 55 57

GFSGL_sfc_dewp_249.txt.gz
Dewpoint
71 73 72 73 74 74 74 73 74 72 76 74 74 74 75 73 75 75 74 73 74 73 73 72 73 70 70 72 73 73 72 71 68 68 71 70 71 71 73 71 73 74 73
71 71 72 73 73 73 74 73 74 74 75 75 74 74 74 74 74 74 73 72 73 74 73 73 72 73 73 73 73 73 73 72 70 69 69 71 72 70 69 71 72 75 72
71 71 72 72 72 72 72 73 74 75 74 74 74 74 74 75 74 74 74 73 73 74 74 74 73 73 72 73 74 74 74 73 72 72 71 70 71 71 71 68 68 68 69
71 70 71 71 72 72 71 72 72 75 74 74 75 74 75 75 75 75 75 74 74 74 74 75 74 74 73 73 74 74 73 73 73 73 73 72 71 68 67 67 68 68 68
70 69 69 70 71 71 71 72 71 73 74 73 74 75 75 74 75 74 74 74 74 74 74 74 74 74 73 73 73 73 74 73 73 72 70 69 69 69 68 70 69 70 71
68 69 69 71 70 71 71 71 73 72 72 74 74 74 74 75 70 67 71 74 73 73 72 73 74 73 72 69 68 69 71 73 71 70 69 69 70 70 71 70 70 70 68
69 70 70 71 70 71 71 71 70 73 72 72 75 74 73 73 68 65 66 69 72 73 73 72 73 72 70 71 69 67 66 65 66 70 69 69 69 70 70 70 70 69 68
71 71 72 71 71 72 72 71 73 72 74 73 73 73 73 73 67 65 65 68 70 70 72 73 73 72 72 71 71 71 71 71 71 69 68 69 70 71 70 71 71 70 71
71 72 73 73 73 73 72 73 74 74 73 72 72 72 72 72 65 63 64 69 71 71 71 72 73 72 69 66 70 70 70 70 68 65 64 65 65 65 66 67 68 67 68
69 70 72 72 72 72 73 73 73 73 72 72 70 70 68 72 65 62 63 69 70 71 72 72 66 68 65 63 68 70 70 70 70 71 72 71 70 71 65 67 69 67 67
69 70 70 71 70 70 71 70 70 70 70 70 69 68 70 69 65 57 58 66 69 70 70 72 72 61 60 60 61 66 67 69 69 71 72 73 73 71 73 72 71 70 69
69 69 69 69 70 70 69 69 69 69 69 69 67 67 69 67 60 58 57 58 62 68 68 67 67 61 57 57 59 61 59 60 65 67 68 69 70 71 73 71 69 67 67
68 67 68 68 69 69 69 68 68 67 66 64 65 65 66 68 64 56 56 57 60 67 68 66 60 57 56 60 59 57 57 64 66 68 69 70 70 72 70 66 65 65 64
65 66 68 68 68 69 70 69 68 68 68 68 67 67 65 66 61 60 61 62 62 64 63 64 63 62 60 61 63 66 66 68 69 69 70 71 72 71 71 68 66 65 63
58 65 62 62 66 67 67 66 66 64 60 66 64 64 63 62 59 53 54 59 61 60 57 60 64 67 68 66 67 68 69 70 70 70 70 70 70 70 70 69 67 65 63
57 57 55 53 64 65 63 62 55 52 48 46 46 55 58 52 48 46 44 44 44 46 53 65 63 62 62 63 62 63 64 63 63 65 66 67 68 70 69 69 66 64 63
56 56 53 53 53 56 62 62 60 59 54 50 47 47 46 45 48 46 44 46 46 48 60 60 59 59 59 58 58 58 57 58 59 61 62 63 64 66 68 69 66 64 63
53 53 52 55 53 53 54 53 55 60 59 59 53 52 49 44 44 44 43 48 58 56 59 58 58 58 57 56 56 55 56 56 56 58 59 60 61 63 65 67 67 65 64
51 51 52 48 48 51 52 51 53 54 55 59 59 53 51 47 46 45 47 58 58 58 58 57 56 55 54 55 54 54 54 53 54 55 55 55 57 59 62 65 67 60 61
52 53 52 49 48 49 52 54 53 52 53 54 55 58 56 53 53 56 58 57 56 56 56 56 55 54 54 54 53 52 52 52 51 52 52 53 54 56 60 63 64 64 63
47 48 52 50 50 49 48 49 48 49 50 51 53 55 52 50 49 50 58 56 55 55 55 55 54 54 53 52 52 52 51 50 48 48 50 51 52 54 57 61 63 64 64
42 43 45 42 43 43 43 44 48 48 46 46 48 52 44 47 50 51 54 55 56 55 54 54 53 54 52 51 50 47 46 42 41 43 45 48 50 53 55 57 61 62 63
41 41 42 43 42 43 41 42 43 47 46 46 48 49 49 48 49 51 50 50 50 55 54 52 50 50 50 50 47 44 39 34 37 39 43 43 47 52 54 56 58 61 61
40 41 41 41 42 41 42 43 44 42 44 44 41 41 44 46 47 44 46 48 47 50 53 51 50 48 47 46 45 40 32 30 31 34 33 37 43 52 53 53 55 57 58
39 41 40 41 42 43 44 43 44 43 42 41 43 43 44 45 43 42 44 46 46 45 46 44 45 44 42 41 35 31 29 29 29 31 31 31 35 47 51 51 52 54 55
40 41 42 43 44 44 44 43 43 43 42 41 40 43 43 43 42 41 42 44 45 45 43 43 41 42 40 39 35 31 30 29 29 30 29 31 35 41 48 48 48 52 53